Starlink 1234

operational
NORAD ID: 45190 Int'l Des: 2020-012 Owner: SPXS Country: US Constellation: starlink
LEOCIRCULARSTARLINK_TYPE

Über Starlink 1234

Beschreibung wird geladen...

Live-Position

3D-Globus wird geladen...

Nächste Überflüge

Höhenverlauf

Altitude vs Time

uPlot chart will show altitude changes over time

Zweizeiliger Elementsatz

1 45190U 20012N 26034.52979423 .00116565 00000-0 17207-2 0 9993
2 45190 53.0483 131.2681 0008560 203.5846 156.4772 15.54469503330553
Epoch: 3. Feb. 2026 • Age: 27 hours

Aktueller Status

Höhe 412.3 km
Geschwindigkeit 7.67 km/s
Subsatellitenpunkt 53.15°N, 152.22°W
Startdatum 17. Feb. 2020
Alter 5.9 years
Typ internet

Technische Details

Klassifizierung Payload
Masse 260.00 kg
Trockenmasse 248.00 kg
Gesamtmasse 260.00 kg
Länge 0.20 m
Durchmesser 2.80 m
Spannweite 9.00 m
Form Box + pan
Hersteller SPXS
Bus-Typ Starlink
Phasenstatus In Orbit
Besitzer/Staat SPXS/US

Große Konstellationen

Loading constellations...